North Bend, OR

10:04 PM PDT on March 26, 2017 (GMT -0700)
North Bend Municipal

Weather History for KOTH - April, 2014

Change the Weather History Date:

Sunday, April 13, 2014

  Actual Average Record
Temperature  
Mean Temperature 55 °F 49 °F  
Max Temperature 70 °F 55 °F 88 °F (1947)
Min Temperature 39 °F 43 °F 28 °F (1968)
Degree Days  
Heating Degree Days 10 16  
Month to date heating degree days 187 217  
Since 1 July heating degree days 3420 3929  
Cooling Degree Days 0 0  
Month to date cooling degree days 0 0  
Year to date cooling degree days 0 0  
Growing Degree Days 4 (Base 50)    
Moisture  
Dew Point 44 °F    
Average Humidity 74    
Maximum Humidity 100    
Minimum Humidity 37    
Precipitation  
Precipitation 0.00 in 0.17 in 1.73 in (1967)
Month to date precipitation 0.60 2.58  
Year to date precipitation 16.67 28.19  
Sea Level Pressure  
Sea Level Pressure 30.10 in    
Wind  
Wind Speed 7 mph (North)    
Max Wind Speed 22 mph    
Max Gust Speed 28 mph    
Visibility 8 miles    
Events      
T = Trace of Precipitation, MM = Missing Value Source: NWS Daily Summary

Daily Weather History Graph

Daily Weather History Graph

Search for Another Location

Airport or City:

Trip Planner

Search our weather history database for the weather conditions in past years. The results will help you decide how hot, cold, wet, or windy it might be!

Date:

Astronomy

Apr. 13, 2014 Rise Set
Actual Time 6:37 AM PDT 7:57 PM PDT
Civil Twilight 6:08 AM PDT 8:27 PM PDT
Nautical Twilight 5:32 AM PDT 9:03 PM PDT
Astronomical Twilight 4:54 AM PDT 9:41 PM PDT
Moon 6:39 PM PDT (4/13) 5:42 AM PDT (4/13)
Length of Visible Light 14h 19m
Length of Day
13h 20m
Waxing Gibbous, 97% of the Moon is Illuminated
Apr 13
Waxing Gibbous
Apr 15
Full
Apr 22
Last Quarter
Apr 28
New
May 6
First Quarter

Hourly Weather History & Observations

Time (PDT) Temp. Windchill Dew Point Humidity Pressure Visibility Wind Dir Wind Speed Gust Speed Precip Events Conditions
12:15 AM 44.6 °F 42.2 °F 44.6 °F 100% 30.13 in 10.0 mi NE 4.6 mph - N/A   Clear
12:35 AM 46.4 °F 45.2 °F 46.4 °F 100% 30.13 in 10.0 mi NNE 3.5 mph - N/A   Clear
12:55 AM 44.6 °F - 44.6 °F 100% 30.14 in 10.0 mi Calm Calm - N/A   Clear
1:15 AM 44.6 °F - 44.6 °F 100% 30.14 in 10.0 mi Calm Calm - N/A   Clear
1:35 AM 44.6 °F 43.1 °F 42.8 °F 93% 30.13 in 10.0 mi SSE 3.5 mph - N/A   Clear
1:55 AM 42.8 °F 39.3 °F 42.8 °F 100% 30.13 in 10.0 mi SSE 5.8 mph - N/A   Clear
2:15 AM 42.8 °F 40.1 °F 42.8 °F 100% 30.13 in 10.0 mi SE 4.6 mph - N/A   Clear
2:35 AM 42.8 °F - 42.8 °F 100% 30.13 in 10.0 mi Calm Calm - N/A   Clear
2:55 AM 41.0 °F 38.0 °F 39.2 °F 93% 30.12 in 10.0 mi SSE 4.6 mph - N/A   Clear
3:15 AM 42.8 °F 41.1 °F 42.8 °F 100% 30.11 in 5.0 mi SSE 3.5 mph - N/A   Mostly Cloudy
3:35 AM 41.0 °F 38.0 °F 41.0 °F 100% 30.11 in 8.0 mi South 4.6 mph - N/A   Overcast
3:55 AM 42.8 °F 41.1 °F 42.8 °F 100% 30.12 in 10.0 mi South 3.5 mph - N/A   Overcast
4:15 AM 42.8 °F - 42.8 °F 100% 30.12 in 4.0 mi Calm Calm - N/A   Overcast
4:35 AM 42.8 °F - 42.8 °F 100% 30.11 in 0.8 mi Calm Calm - N/A   Overcast
4:55 AM 42.8 °F 41.1 °F 42.8 °F 100% 30.11 in 2.5 mi NNE 3.5 mph - N/A   Overcast
5:15 AM 42.8 °F - 42.8 °F 100% 30.11 in 1.8 mi Calm Calm - N/A   Overcast
5:35 AM 41.0 °F 39.0 °F 41.0 °F 100% 30.11 in 0.2 mi SSE 3.5 mph - N/A   Overcast
5:55 AM 39.2 °F - 39.2 °F 100% 30.11 in 1.5 mi Calm Calm - N/A   Mostly Cloudy
6:15 AM 39.2 °F - 39.2 °F 100% 30.12 in 0.2 mi Calm Calm - N/A   Overcast
6:35 AM 39.2 °F - 39.2 °F 100% 30.12 in 0.2 mi Calm Calm - N/A   Overcast
6:55 AM 39.2 °F - 39.2 °F 100% 30.13 in 0.2 mi Calm Calm - N/A   Overcast
7:15 AM 41.0 °F 39.0 °F 41.0 °F 100% 30.13 in 1.8 mi NNE 3.5 mph - N/A   Scattered Clouds
7:35 AM 42.8 °F 40.1 °F 42.8 °F 100% 30.14 in 1.8 mi NNE 4.6 mph - N/A   Scattered Clouds
7:55 AM 42.8 °F 40.1 °F 42.8 °F 100% 30.14 in 10.0 mi North 4.6 mph - N/A   Clear
8:35 AM 46.4 °F 45.2 °F 46.4 °F 100% 30.15 in 10.0 mi NNE 3.5 mph - N/A   Clear
8:55 AM 48.2 °F - 48.2 °F 100% 30.15 in 10.0 mi North 3.5 mph - N/A   Clear
9:15 AM 50.0 °F - 48.2 °F 94% 30.15 in 10.0 mi North 3.5 mph - N/A   Clear
9:35 AM 51.8 °F - 48.2 °F 88% 30.15 in 10.0 mi North 4.6 mph - N/A   Clear
9:55 AM 53.6 °F - 50.0 °F 88% 30.15 in 10.0 mi North 4.6 mph - N/A   Clear
10:15 AM 55.4 °F - 48.2 °F 77% 30.15 in 10.0 mi NW 3.5 mph - N/A   Clear
10:35 AM 57.2 °F - 48.2 °F 72% 30.15 in 10.0 mi Calm Calm - N/A   Clear
10:55 AM 60.8 °F - 46.4 °F 59% 30.15 in 10.0 mi Calm Calm - N/A   Clear
11:15 AM 64.4 °F - 42.8 °F 45% 30.15 in 10.0 mi North 3.5 mph - N/A   Clear
11:35 AM 66.2 °F - 41.0 °F 40% 30.15 in 10.0 mi North 3.5 mph - N/A   Clear
11:55 AM 66.2 °F - 39.2 °F 37% 30.14 in 10.0 mi North 4.6 mph - N/A   Clear
12:15 PM 68.0 °F - 39.2 °F 35% 30.13 in 10.0 mi NE 5.8 mph - N/A   Clear
12:35 PM 69.8 °F - 39.2 °F 33% 30.13 in 10.0 mi NNE 4.6 mph - N/A   Clear
12:55 PM 69.8 °F - 42.8 °F 38% 30.12 in 10.0 mi North 6.9 mph - N/A   Clear
1:15 PM 66.2 °F - 48.2 °F 52% 30.12 in 10.0 mi NNW 10.4 mph - N/A   Clear
1:35 PM 66.2 °F - 48.2 °F 52% 30.12 in 10.0 mi NNW 10.4 mph - N/A   Clear
1:55 PM 66.2 °F - 48.2 °F 52% 30.11 in 10.0 mi NNW 11.5 mph - N/A   Clear
2:15 PM 68.0 °F - 46.4 °F 46% 30.11 in 10.0 mi NNW 15.0 mph - N/A   Clear
2:35 PM 66.2 °F - 44.6 °F 46% 30.11 in 10.0 mi North 16.1 mph 23.0 mph N/A   Clear
2:55 PM 66.2 °F - 42.8 °F 43% 30.10 in 10.0 mi North 19.6 mph 25.3 mph N/A   Clear
3:15 PM 68.0 °F - 42.8 °F 40% 30.09 in 10.0 mi North 19.6 mph 26.5 mph N/A   Clear
3:35 PM 66.2 °F - 41.0 °F 40% 30.08 in 10.0 mi North 21.9 mph 26.5 mph N/A   Clear
3:55 PM 66.2 °F - 41.0 °F 40% 30.07 in 10.0 mi North 21.9 mph 27.6 mph N/A   Clear
4:15 PM 66.2 °F - 41.0 °F 40% 30.07 in 10.0 mi North 20.7 mph - N/A   Clear
4:35 PM 66.2 °F - 41.0 °F 40% 30.07 in 10.0 mi North 21.9 mph 26.5 mph N/A   Clear
4:55 PM 66.2 °F - 41.0 °F 40% 30.06 in 10.0 mi North 20.7 mph 25.3 mph N/A   Clear
5:15 PM 66.2 °F - 41.0 °F 40% 30.06 in 10.0 mi North 19.6 mph 26.5 mph N/A   Clear
5:35 PM 66.2 °F - 42.8 °F 43% 30.05 in 10.0 mi North 18.4 mph - N/A   Clear
5:55 PM 66.2 °F - 41.0 °F 40% 30.05 in 10.0 mi North 17.3 mph - N/A   Clear
6:15 PM 64.4 °F - 42.8 °F 45% 30.05 in 10.0 mi North 16.1 mph - N/A   Clear
6:35 PM 64.4 °F - 42.8 °F 45% 30.04 in 10.0 mi North 15.0 mph - N/A   Clear
6:55 PM 64.4 °F - 42.8 °F 45% 30.04 in 10.0 mi North 13.8 mph - N/A   Clear
7:15 PM 64.4 °F - 44.6 °F 49% 30.04 in 10.0 mi North 11.5 mph - N/A   Clear
7:35 PM 62.6 °F - 46.4 °F 55% 30.04 in 10.0 mi North 8.1 mph - N/A   Clear
7:55 PM 59.0 °F - 46.4 °F 63% 30.04 in 10.0 mi NNE 5.8 mph - N/A   Clear
8:15 PM 59.0 °F - 48.2 °F 67% 30.04 in 10.0 mi Calm Calm - N/A   Clear
8:35 PM 60.8 °F - 48.2 °F 63% 30.05 in 10.0 mi Calm Calm - N/A   Clear
8:55 PM 55.4 °F - 48.2 °F 77% 30.06 in 9.0 mi West 4.6 mph - N/A   Clear
9:15 PM 53.6 °F - 51.8 °F 94% 30.06 in 3.0 mi West 5.8 mph - N/A   Clear
9:35 PM 53.6 °F - 50.0 °F 88% 30.07 in 3.0 mi West 5.8 mph - N/A   Clear
9:55 PM 51.8 °F - 50.0 °F 94% 30.07 in 3.0 mi West 4.6 mph - N/A   Clear
10:15 PM 53.6 °F - 48.2 °F 82% 30.07 in 7.0 mi Calm Calm - N/A   Clear
10:35 PM 53.6 °F - 50.0 °F 88% 30.07 in 5.0 mi Calm Calm - N/A   Clear
10:55 PM 53.6 °F - 51.8 °F 94% 30.07 in 5.0 mi Calm Calm - N/A   Clear
11:15 PM 53.6 °F - 50.0 °F 88% 30.07 in 7.0 mi Calm Calm - N/A   Clear
11:35 PM 51.8 °F - 51.8 °F 100% 30.07 in 5.0 mi Calm Calm - N/A   Clear
11:55 PM 51.8 °F - 46.4 °F 82% 30.07 in 10.0 mi Calm Calm - N/A   Clear